Hourly Weather Bolshie Kuzmenki

Today, 31 July, Saturday

Time Temperature Precipitation Wind Pressure Humidity
00:00 +18°C° 0 mm 3 mps 737 mmHg 90%
01:00 +17°C° 0 mm 3 mps 737 mmHg 89%
02:00 +17°C° 0 mm 3 mps 737 mmHg 89%
03:00 +17°C° 0 mm 3 mps 737 mmHg 88%
04:00 +17°C° 0 mm 3 mps 737 mmHg 87%
05:00 +17°C° 0 mm 3 mps 737 mmHg 86%
06:00 +19°C° 0 mm 3 mps 738 mmHg 78%
07:00 +21°C° 0 mm 3 mps 738 mmHg 70%
08:00 +22°C° 0 mm 4 mps 738 mmHg 65%
09:00 +25°C° 0 mm 4 mps 738 mmHg 60%
10:00 +26°C° 0 mm 5 mps 738 mmHg 54%
11:00 +28°C° 0 mm 6 mps 738 mmHg 49%
12:00 +27°C° 0 mm 5 mps 738 mmHg 51%
13:00 +27°C° 0 mm 4 mps 738 mmHg 53%
14:00 +26°C° 0 mm 4 mps 738 mmHg 55%
15:00 +26°C° 0 mm 4 mps 739 mmHg 53%
16:00 +27°C° 0 mm 4 mps 739 mmHg 52%
17:00 +27°C° 0 mm 4 mps 739 mmHg 50%
18:00 +25°C° 0 mm 3 mps 739 mmHg 55%
19:00 +22°C° 0 mm 3 mps 739 mmHg 61%
20:00 +20°C° 0 mm 2 mps 740 mmHg 66%
21:00 +19°C° 0 mm 2 mps 740 mmHg 67%
22:00 +19°C° 0 mm 2 mps 740 mmHg 68%
23:00 +19°C° 0 mm 1 mps 740 mmHg 69%

Tomorrow, 1 August, Sunday

Time Temperature Precipitation Wind Pressure Humidity
00:00 +19°C° 0 mm 1 mps 740 mmHg 70%
01:00 +17°C° 0 mm 2 mps 741 mmHg 70%
02:00 +17°C° 0 mm 2 mps 741 mmHg 71%
03:00 +17°C° 0 mm 2 mps 741 mmHg 71%
04:00 +18°C° 0 mm 2 mps 741 mmHg 70%
05:00 +18°C° 0 mm 2 mps 741 mmHg 70%
06:00 +20°C° 0 mm 3 mps 741 mmHg 65%
07:00 +22°C° 0 mm 3 mps 741 mmHg 60%
08:00 +26°C° 0 mm 4 mps 741 mmHg 55%
09:00 +27°C° 0 mm 4 mps 741 mmHg 51%
10:00 +29°C° 0 mm 5 mps 741 mmHg 48%
11:00 +30°C° 0 mm 5 mps 741 mmHg 44%
12:00 +32°C° 0 mm 5 mps 741 mmHg 42%
13:00 +32°C° 0 mm 6 mps 741 mmHg 40%
14:00 +33°C° 0 mm 6 mps 741 mmHg 37%
15:00 +32°C° 0 mm 5 mps 740 mmHg 40%
16:00 +32°C° 0 mm 5 mps 740 mmHg 43%
17:00 +30°C° 0 mm 5 mps 740 mmHg 46%
18:00 +28°C° 0 mm 4 mps 740 mmHg 52%
19:00 +26°C° 0 mm 3 mps 740 mmHg 58%
20:00 +25°C° 0 mm 2 mps 740 mmHg 64%
21:00 +24°C° 0.1 mm 2 mps 740 mmHg 69%
22:00 +21°C° 0.1 mm 2 mps 740 mmHg 75%
23:00 +21°C° 0.1 mm 1 mps 740 mmHg 80%

Day after tomorrow, 2 August, Monday

Time Temperature Precipitation Wind Pressure Humidity
00:00 +21°C° 0.2 mm 1 mps 740 mmHg 82%
01:00 +21°C° 0.2 mm 1 mps 740 mmHg 84%
02:00 +20°C° 0.2 mm 1 mps 740 mmHg 86%
03:00 +20°C° 0.2 mm 2 mps 740 mmHg 85%
04:00 +20°C° 0.2 mm 2 mps 740 mmHg 85%
05:00 +20°C° 0.2 mm 2 mps 740 mmHg 84%
06:00 +22°C° 0.3 mm 3 mps 740 mmHg 79%
07:00 +24°C° 0.3 mm 3 mps 740 mmHg 74%
08:00 +26°C° 0.3 mm 4 mps 740 mmHg 69%
09:00 +28°C° 0 mm 4 mps 739 mmHg 62%
10:00 +30°C° 0 mm 5 mps 739 mmHg 54%
11:00 +32°C° 0 mm 5 mps 739 mmHg 46%
12:00 +33°C° 0 mm 6 mps 738 mmHg 43%
13:00 +34°C° 0 mm 7 mps 738 mmHg 40%
14:00 +35°C° 0 mm 7 mps 737 mmHg 37%
15:00 +34°C° 0 mm 7 mps 737 mmHg 42%
16:00 +33°C° 0 mm 6 mps 737 mmHg 47%
17:00 +32°C° 0 mm 5 mps 737 mmHg 52%
18:00 +28°C° 0.9 mm 5 mps 737 mmHg 63%
19:00 +25°C° 0.9 mm 5 mps 737 mmHg 75%
20:00 +21°C° 0.9 mm 6 mps 736 mmHg 87%
21:00 +20°C° 2.5 mm 6 mps 737 mmHg 87%
22:00 +19°C° 2.5 mm 6 mps 737 mmHg 87%
23:00 +19°C° 2.5 mm 6 mps 737 mmHg 87%

3 August, Tuesday

Time Temperature Precipitation Wind Pressure Humidity
00:00 +19°C° 0 mm 6 mps 737 mmHg 88%
01:00 +19°C° 0 mm 5 mps 736 mmHg 89%
02:00 +19°C° 0 mm 5 mps 736 mmHg 91%
03:00 +19°C° 0 mm 5 mps 736 mmHg 91%
04:00 +19°C° 0 mm 5 mps 737 mmHg 90%
05:00 +19°C° 0 mm 4 mps 737 mmHg 90%
06:00 +19°C° 0.1 mm 4 mps 737 mmHg 88%
07:00 +19°C° 0.1 mm 4 mps 738 mmHg 85%
08:00 +20°C° 0.1 mm 4 mps 738 mmHg 83%
09:00 +20°C° 0.2 mm 5 mps 739 mmHg 77%
10:00 +21°C° 0.2 mm 5 mps 739 mmHg 72%
11:00 +22°C° 0.2 mm 6 mps 740 mmHg 66%
12:00 +22°C° 0 mm 5 mps 740 mmHg 62%
13:00 +23°C° 0 mm 5 mps 740 mmHg 58%
14:00 +25°C° 0 mm 5 mps 740 mmHg 54%
15:00 +23°C° 0.3 mm 5 mps 740 mmHg 60%
16:00 +22°C° 0.3 mm 5 mps 741 mmHg 66%
17:00 +21°C° 0.3 mm 5 mps 741 mmHg 71%
18:00 +20°C° 0.2 mm 4 mps 741 mmHg 76%
19:00 +19°C° 0.2 mm 3 mps 741 mmHg 81%
20:00 +17°C° 0.2 mm 2 mps 742 mmHg 85%
21:00 +17°C° 0 mm 2 mps 742 mmHg 86%
22:00 +16°C° 0 mm 3 mps 742 mmHg 86%
23:00 +16°C° 0 mm 3 mps 742 mmHg 86%

4 August, Wednesday

Time Temperature Precipitation Wind Pressure Humidity
00:00 +15°C° 0 mm 2 mps 743 mmHg 85%
01:00 +15°C° 0 mm 2 mps 743 mmHg 84%
02:00 +15°C° 0 mm 2 mps 743 mmHg 83%
03:00 +15°C° 0 mm 2 mps 743 mmHg 83%
04:00 +15°C° 0 mm 2 mps 743 mmHg 83%
05:00 +15°C° 0 mm 2 mps 744 mmHg 82%
06:00 +17°C° 0 mm 2 mps 744 mmHg 78%
07:00 +18°C° 0 mm 2 mps 744 mmHg 73%
08:00 +19°C° 0 mm 2 mps 744 mmHg 68%
09:00 +20°C° 0 mm 2 mps 745 mmHg 63%
10:00 +22°C° 0 mm 3 mps 745 mmHg 57%
11:00 +24°C° 0 mm 3 mps 745 mmHg 51%
12:00 +24°C° 0 mm 3 mps 745 mmHg 49%
13:00 +25°C° 0 mm 3 mps 745 mmHg 47%
14:00 +25°C° 0 mm 3 mps 745 mmHg 45%
15:00 +24°C° 0 mm 3 mps 745 mmHg 51%
16:00 +23°C° 0 mm 2 mps 745 mmHg 56%
17:00 +21°C° 0 mm 2 mps 745 mmHg 61%
18:00 +20°C° 0 mm 2 mps 745 mmHg 62%
19:00 +21°C° 0 mm 1 mps 745 mmHg 63%
20:00 +20°C° 0 mm 1 mps 746 mmHg 64%
21:00 +20°C° 0 mm 1 mps 746 mmHg 65%
22:00 +19°C° 0 mm 1 mps 746 mmHg 67%
23:00 +19°C° 0 mm 1 mps 746 mmHg 69%

5 August, Thursday

Time Temperature Precipitation Wind Pressure Humidity
00:00 +18°C° 0 mm 1 mps 746 mmHg 71%
01:00 +18°C° 0 mm 1 mps 746 mmHg 74%
02:00 +16°C° 0 mm 1 mps 746 mmHg 76%
03:00 +16°C° 0 mm 1 mps 746 mmHg 77%
04:00 +15°C° 0 mm 0 mps 746 mmHg 77%
05:00 +15°C° 0 mm 0 mps 747 mmHg 77%
06:00 +17°C° 0 mm 0 mps 747 mmHg 71%
07:00 +19°C° 0 mm 0 mps 747 mmHg 64%
08:00 +21°C° 0 mm 0 mps 747 mmHg 57%
09:00 +22°C° 0 mm 0 mps 747 mmHg 53%
10:00 +25°C° 0 mm 1 mps 747 mmHg 48%
11:00 +26°C° 0 mm 1 mps 747 mmHg 43%
12:00 +26°C° 0 mm 1 mps 747 mmHg 41%
13:00 +27°C° 0 mm 1 mps 746 mmHg 39%
14:00 +27°C° 0 mm 1 mps 746 mmHg 37%
15:00 +27°C° 0 mm 1 mps 746 mmHg 40%
16:00 +27°C° 0 mm 1 mps 746 mmHg 44%
17:00 +26°C° 0 mm 1 mps 745 mmHg 47%
18:00 +24°C° 0 mm 1 mps 745 mmHg 51%
19:00 +22°C° 0 mm 1 mps 745 mmHg 55%
20:00 +21°C° 0 mm 1 mps 745 mmHg 60%
21:00 +20°C° 0 mm 1 mps 745 mmHg 61%
22:00 +18°C° 0 mm 2 mps 745 mmHg 62%
23:00 +18°C° 0 mm 2 mps 745 mmHg 64%
Show more

We Need Your Consent

Meteoprog and our Service Providers may store and access personal data such as cookies, device identifiers or other similar technologies on your device and process such data to personalise content and ads, as well as provide social media features and to analyse the traffic.

  • Store and/or access information on your device

    Cookies, device identifiers or other information can be stored or accessed on your device for the purposes indicated above.

  • Personalised ads and content, ad and content measurement, audience insights, and products development

    Ads and content can be personalised based on a profile. More data can be added to better personalise ads and content. Ad and content performance can be measured. Insights about the audience who saw the ads and content can be derived. Such data can be used to develop or improve user’s experience, systems and software.

By clicking ‘I Agree’ you will allow the use of indicated cookies, device identifiers, web beacons or other similar technologies. Your settings can be changed in the browser on your device.

For certain purposes, legitimate interests may be relied on, rather than consent. You can read more about this in our Privacy and Cookie Policy.